EZS12DC LSGG-DTNH

Flight info

Callsign EZS12DC
Flight time 1h 49m
Altitude 39000
Route MEDAM DCT NITAM DCT MOGBO DCT UNITA DCT VELAD DCT QUENN DCT TIVUK DCT OSMAR UA725 TANIT UM739 CBN/N0370F230 M738 DIDON G727 ATLEL ATLEL1E
Aircraft A320/M-SDE2E3FGHIJ1RWXYZ/LB1

Departure

Time 2026-04-21 11:51
Airport Geneva International Airport (LSGG)

Arrival

Time 2026-04-21 13:41
Airport Enfidha - Hammamet International Airport (DTNH)
Time Latitude Longitude Altitude Speed Heading
2026-04-21 11:26 46.23381 6.11039 1393 ft 0 kts 135°
2026-04-21 11:35 46.23388 6.11029 1397 ft 4 kts 130°
2026-04-21 11:35 46.23404 6.10998 1396 ft 4 kts 131°
2026-04-21 11:35 46.23422 6.10974 1403 ft 4 kts 162°
2026-04-21 11:36 46.23445 6.10978 1402 ft 4 kts 221°
2026-04-21 11:36 46.23460 6.10999 1402 ft 4 kts 226°
2026-04-21 11:36 46.23473 6.11017 1404 ft 1 kts 225°
2026-04-21 11:39 46.23461 6.11000 1398 ft 6 kts 225°
2026-04-21 11:39 46.23442 6.10972 1399 ft 5 kts 225°
2026-04-21 11:39 46.23409 6.10923 1398 ft 9 kts 225°
2026-04-21 11:39 46.23366 6.10860 1393 ft 8 kts 225°
2026-04-21 11:40 46.23354 6.10797 1398 ft 6 kts 302°
2026-04-21 11:40 46.23381 6.10755 1399 ft 5 kts 316°
2026-04-21 11:40 46.23410 6.10715 1396 ft 7 kts 316°
2026-04-21 11:40 46.23407 6.10652 1398 ft 7 kts 225°
2026-04-21 11:41 46.23362 6.10587 1395 ft 12 kts 225°
2026-04-21 11:41 46.23304 6.10503 1398 ft 11 kts 225°
2026-04-21 11:41 46.23240 6.10411 1401 ft 20 kts 225°
2026-04-21 11:41 46.23134 6.10246 1396 ft 22 kts 231°
2026-04-21 11:42 46.23032 6.10092 1397 ft 20 kts 225°
2026-04-21 11:42 46.22939 6.09955 1404 ft 18 kts 225°
2026-04-21 11:42 46.22856 6.09833 1398 ft 16 kts 223°
2026-04-21 11:42 46.22780 6.09723 1397 ft 15 kts 226°
2026-04-21 11:43 46.22712 6.09624 1404 ft 13 kts 226°
2026-04-21 11:43 46.22651 6.09535 1401 ft 12 kts 225°
2026-04-21 11:43 46.22593 6.09448 1396 ft 13 kts 228°
2026-04-21 11:43 46.22556 6.09357 1406 ft 7 kts 252°
2026-04-21 11:44 46.22552 6.09325 1406 ft 5 kts 262°
2026-04-21 11:44 46.22551 6.09270 1407 ft 1 kts 270°
2026-04-21 11:49 46.22551 6.09241 1412 ft 9 kts 270°
2026-04-21 11:49 46.22576 6.09163 1416 ft 9 kts 314°
2026-04-21 11:49 46.22630 6.09168 1418 ft 7 kts 46°
2026-04-21 11:50 46.22631 6.09170 1418 ft 0 kts 46°
2026-04-21 11:50 46.22688 6.09253 1420 ft 43 kts 45°
2026-04-21 11:50 46.23080 6.09830 1410 ft 115 kts 45°
2026-04-21 11:51 46.23775 6.10846 1479 ft 159 kts 44°
2026-04-21 11:51 46.24523 6.11981 2269 ft 156 kts 46°
2026-04-21 11:51 46.25284 6.13129 3002 ft 159 kts 45°
2026-04-21 11:51 46.26052 6.14276 3756 ft 160 kts 44°
2026-04-21 11:52 46.26847 6.15431 4503 ft 162 kts 43°
2026-04-21 11:52 46.27670 6.16622 5125 ft 178 kts 43°
2026-04-21 11:52 46.28592 6.17961 5511 ft 199 kts 43°
2026-04-21 11:52 46.29623 6.19462 5823 ft 223 kts 44°
2026-04-21 11:53 46.30775 6.21148 6262 ft 247 kts 44°
2026-04-21 11:53 46.32041 6.23001 6756 ft 269 kts 43°
2026-04-21 11:53 46.33384 6.24973 7556 ft 278 kts 43°
2026-04-21 11:53 46.34752 6.26985 8457 ft 284 kts 43°
2026-04-21 11:54 46.35951 6.29281 9332 ft 293 kts 66°
2026-04-21 11:54 46.36232 6.32211 10191 ft 301 kts 99°
2026-04-21 11:54 46.35446 6.35004 10998 ft 305 kts 127°
2026-04-21 11:54 46.33879 6.37071 11500 ft 320 kts 153°
2026-04-21 11:55 46.31694 6.37897 11885 ft 335 kts 184°
2026-04-21 11:55 46.29402 6.37109 12544 ft 339 kts 205°
2026-04-21 11:55 46.27249 6.35765 13331 ft 343 kts 208°
2026-04-21 11:55 46.25073 6.34296 14101 ft 348 kts 209°
2026-04-21 11:56 46.22878 6.32771 14829 ft 352 kts 210°
2026-04-21 11:56 46.20586 6.31433 15553 ft 360 kts 201°
2026-04-21 11:56 46.18091 6.30732 16240 ft 371 kts 189°
2026-04-21 11:56 46.15489 6.30564 16922 ft 377 kts 187°
2026-04-21 11:57 46.12850 6.30422 17590 ft 382 kts 187°
2026-04-21 11:57 46.10181 6.30271 18248 ft 387 kts 187°
2026-04-21 11:57 46.07472 6.30113 18778 ft 392 kts 188°
2026-04-21 11:57 46.04725 6.29950 19329 ft 397 kts 188°
2026-04-21 11:58 46.01950 6.29783 19894 ft 402 kts 188°
2026-04-21 11:58 45.99139 6.29613 20478 ft 406 kts 189°
2026-04-21 11:58 45.96297 6.29442 21050 ft 412 kts 189°
2026-04-21 11:58 45.93414 6.29342 21600 ft 420 kts 184°
2026-04-21 11:59 45.90509 6.29874 22135 ft 433 kts 173°
2026-04-21 11:59 45.87595 6.31239 22636 ft 446 kts 160°
2026-04-21 11:59 45.84849 6.33426 23109 ft 458 kts 148°
2026-04-21 11:59 45.82278 6.36159 23601 ft 463 kts 146°
2026-04-21 12:00 45.79682 6.38932 24054 ft 467 kts 146°
2026-04-21 12:00 45.77073 6.41706 24528 ft 468 kts 146°
2026-04-21 12:00 45.74442 6.44493 24983 ft 471 kts 146°
2026-04-21 12:00 45.71798 6.47283 25423 ft 473 kts 146°
2026-04-21 12:01 45.69142 6.50083 25861 ft 475 kts 147°
2026-04-21 12:01 45.66477 6.52889 26232 ft 477 kts 147°
2026-04-21 12:01 45.63793 6.55714 26639 ft 479 kts 147°
2026-04-21 12:01 45.61099 6.58547 27068 ft 481 kts 147°
2026-04-21 12:02 45.58405 6.61378 27528 ft 483 kts 147°
2026-04-21 12:02 45.52978 6.67080 28391 ft 486 kts 147°
2026-04-21 12:02 45.50245 6.69939 28847 ft 488 kts 147°
2026-04-21 12:03 45.47498 6.72811 29278 ft 490 kts 147°
2026-04-21 12:03 45.44743 6.75684 29652 ft 492 kts 147°
2026-04-21 12:03 45.41964 6.78533 30028 ft 494 kts 148°
2026-04-21 12:03 45.39153 6.81359 30399 ft 495 kts 148°
2026-04-21 12:04 45.36331 6.84163 30747 ft 496 kts 148°
2026-04-21 12:04 45.33493 6.86974 31097 ft 497 kts 148°
2026-04-21 12:04 45.30653 6.89788 31446 ft 499 kts 149°
2026-04-21 12:04 45.27807 6.92626 31841 ft 499 kts 147°
2026-04-21 12:05 45.25135 6.95783 32349 ft 500 kts 139°
2026-04-21 12:05 45.22655 6.99223 32819 ft 498 kts 138°
2026-04-21 12:05 45.20180 7.02650 33250 ft 496 kts 139°
2026-04-21 12:05 45.17714 7.06051 33731 ft 494 kts 139°
2026-04-21 12:06 45.15243 7.09445 34170 ft 492 kts 139°
2026-04-21 12:06 45.12817 7.12765 34558 ft 491 kts 139°
2026-04-21 12:06 45.10464 7.16259 34925 ft 492 kts 131°
2026-04-21 12:06 45.08433 7.20154 35277 ft 492 kts 126°
2026-04-21 12:07 45.06480 7.24125 35615 ft 490 kts 126°
2026-04-21 12:07 45.04534 7.28068 35929 ft 489 kts 126°
2026-04-21 12:07 45.02580 7.32001 36236 ft 488 kts 126°
2026-04-21 12:07 45.00621 7.35922 36538 ft 488 kts 127°
2026-04-21 12:08 44.98662 7.39822 36808 ft 487 kts 128°
2026-04-21 12:08 44.96495 7.43497 37051 ft 486 kts 133°
2026-04-21 12:08 44.94253 7.47065 37329 ft 485 kts 133°
2026-04-21 12:08 44.92042 7.50592 37594 ft 485 kts 133°
2026-04-21 12:09 44.89905 7.54009 37839 ft 485 kts 133°
2026-04-21 12:09 44.87668 7.57589 38100 ft 485 kts 133°
2026-04-21 12:09 44.85436 7.61162 38354 ft 485 kts 133°
2026-04-21 12:09 44.83210 7.64715 38596 ft 484 kts 133°
2026-04-21 12:10 44.80975 7.68271 38788 ft 484 kts 133°
2026-04-21 12:10 44.78737 7.71824 38925 ft 485 kts 133°
2026-04-21 12:10 44.76501 7.75370 38962 ft 485 kts 133°
2026-04-21 12:11 44.72044 7.82421 38960 ft 486 kts 133°
2026-04-21 12:11 44.67552 7.89507 38965 ft 486 kts 133°
2026-04-21 12:12 44.63058 7.96584 38960 ft 485 kts 133°
2026-04-21 12:12 44.58563 8.03641 38957 ft 485 kts 133°
2026-04-21 12:13 44.54061 8.10691 38957 ft 485 kts 133°
2026-04-21 12:13 44.49551 8.17741 38959 ft 485 kts 133°
2026-04-21 12:14 44.45042 8.24772 38960 ft 485 kts 133°
2026-04-21 12:14 44.40529 8.31798 38963 ft 486 kts 133°
2026-04-21 12:15 44.36010 8.38824 38960 ft 485 kts 133°
2026-04-21 12:15 44.31512 8.45794 38958 ft 485 kts 134°
2026-04-21 12:16 44.27064 8.52647 38951 ft 485 kts 134°
2026-04-21 12:16 44.22527 8.59625 38952 ft 486 kts 134°
2026-04-21 12:17 44.17986 8.66594 38958 ft 486 kts 134°
2026-04-21 12:17 44.13439 8.73573 38958 ft 486 kts 134°
2026-04-21 12:18 44.08896 8.80530 38967 ft 486 kts 134°
2026-04-21 12:18 44.04335 8.87482 38967 ft 486 kts 134°
2026-04-21 12:19 43.99778 8.94404 38963 ft 485 kts 134°
2026-04-21 12:19 43.95193 9.01269 38968 ft 484 kts 139°
2026-04-21 12:20 43.89872 9.06852 38965 ft 479 kts 149°
2026-04-21 12:20 43.84373 9.12068 38961 ft 479 kts 148°
2026-04-21 12:21 43.78880 9.17292 38959 ft 479 kts 148°
2026-04-21 12:21 43.73384 9.22510 38959 ft 479 kts 149°
2026-04-21 12:22 43.67883 9.27711 38960 ft 479 kts 149°
2026-04-21 12:22 43.62422 9.32856 38961 ft 479 kts 149°
2026-04-21 12:23 43.56982 9.37969 38960 ft 479 kts 149°
2026-04-21 12:23 43.51478 9.43137 38955 ft 479 kts 149°
2026-04-21 12:24 43.45975 9.48296 38951 ft 479 kts 149°
2026-04-21 12:24 43.40465 9.53440 38949 ft 479 kts 149°
2026-04-21 12:25 43.34945 9.58577 38950 ft 479 kts 149°
2026-04-21 12:25 43.29451 9.63685 38952 ft 480 kts 149°
2026-04-21 12:26 43.23918 9.68816 38950 ft 480 kts 149°
2026-04-21 12:26 43.18384 9.73945 38951 ft 480 kts 149°
2026-04-21 12:27 43.12844 9.79067 38957 ft 481 kts 149°
2026-04-21 12:27 43.07293 9.84188 38957 ft 481 kts 149°
2026-04-21 12:28 43.02666 9.88447 38960 ft 482 kts 149°
2026-04-21 12:28 42.97093 9.93567 38956 ft 482 kts 149°
2026-04-21 12:29 42.91513 9.98678 38958 ft 483 kts 149°
2026-04-21 12:29 42.86042 10.03684 38957 ft 484 kts 149°
2026-04-21 12:30 42.80443 10.08790 38960 ft 484 kts 150°
2026-04-21 12:30 42.74840 10.13883 38954 ft 484 kts 149°
2026-04-21 12:31 42.68329 10.19805 38960 ft 485 kts 150°
2026-04-21 12:31 42.63629 10.24060 38959 ft 485 kts 150°
2026-04-21 12:32 42.58002 10.29125 38955 ft 485 kts 150°
2026-04-21 12:32 42.52379 10.34191 38954 ft 486 kts 150°
2026-04-21 12:33 42.46747 10.39275 38953 ft 486 kts 150°
2026-04-21 12:33 42.41113 10.44345 38953 ft 486 kts 150°
2026-04-21 12:34 42.35471 10.49397 38954 ft 487 kts 150°
2026-04-21 12:34 42.29810 10.54447 38954 ft 487 kts 150°
2026-04-21 12:35 42.24159 10.59488 38956 ft 487 kts 150°
2026-04-21 12:35 42.18532 10.64502 38957 ft 487 kts 150°
2026-04-21 12:36 42.12883 10.69527 38975 ft 486 kts 150°
2026-04-21 12:36 42.06992 10.73851 38954 ft 477 kts 165°
2026-04-21 12:37 42.00602 10.75569 38950 ft 463 kts 184°
2026-04-21 12:37 41.94260 10.75058 38951 ft 455 kts 191°
2026-04-21 12:38 41.87948 10.74301 38953 ft 455 kts 191°
2026-04-21 12:38 41.81625 10.73548 38954 ft 455 kts 191°
2026-04-21 12:39 41.75315 10.72798 38949 ft 455 kts 191°
2026-04-21 12:39 41.69052 10.72054 38951 ft 455 kts 191°
2026-04-21 12:40 41.62751 10.71302 38953 ft 454 kts 191°
2026-04-21 12:40 41.56447 10.70548 38954 ft 454 kts 191°
2026-04-21 12:41 41.50152 10.69811 38954 ft 454 kts 191°
2026-04-21 12:41 41.43987 10.69100 38954 ft 454 kts 191°
2026-04-21 12:42 41.37700 10.68347 38954 ft 453 kts 191°
2026-04-21 12:42 41.31423 10.67598 38955 ft 453 kts 191°
2026-04-21 12:43 41.25179 10.66870 38960 ft 453 kts 191°
2026-04-21 12:43 41.18904 10.66144 38959 ft 452 kts 191°
2026-04-21 12:44 41.12634 10.65408 38959 ft 452 kts 191°
2026-04-21 12:44 41.06371 10.64677 38956 ft 451 kts 191°
2026-04-21 12:45 41.00110 10.63944 38957 ft 451 kts 191°
2026-04-21 12:45 40.93858 10.63224 38957 ft 451 kts 191°
2026-04-21 12:46 40.87601 10.62504 38956 ft 451 kts 191°
2026-04-21 12:46 40.81356 10.61778 38954 ft 451 kts 191°
2026-04-21 12:47 40.75150 10.61063 38956 ft 451 kts 191°
2026-04-21 12:47 40.68904 10.60346 38952 ft 451 kts 191°
2026-04-21 12:48 40.62650 10.59627 38951 ft 451 kts 191°
2026-04-21 12:48 40.56407 10.58904 38949 ft 451 kts 191°
2026-04-21 12:49 40.50155 10.58185 38949 ft 451 kts 191°
2026-04-21 12:49 40.43909 10.57468 38953 ft 451 kts 191°
2026-04-21 12:50 40.37665 10.56768 38952 ft 450 kts 191°
2026-04-21 12:50 40.31417 10.56065 38950 ft 450 kts 191°
2026-04-21 12:51 40.25175 10.55357 38955 ft 450 kts 191°
2026-04-21 12:51 40.18935 10.54635 38954 ft 450 kts 192°
2026-04-21 12:52 40.12973 10.52699 38955 ft 437 kts 206°
2026-04-21 12:52 40.07261 10.49976 38952 ft 438 kts 206°
2026-04-21 12:53 40.01527 10.47280 38953 ft 438 kts 206°
2026-04-21 12:53 39.95793 10.44587 38953 ft 438 kts 205°
2026-04-21 12:54 39.90058 10.41896 38952 ft 438 kts 205°
2026-04-21 12:54 39.84328 10.39205 38955 ft 438 kts 205°
2026-04-21 12:55 39.78631 10.36542 38957 ft 438 kts 205°
2026-04-21 12:55 39.72902 10.33866 38958 ft 437 kts 205°
2026-04-21 12:56 39.67174 10.31190 38955 ft 437 kts 205°
2026-04-21 12:56 39.61449 10.28514 38959 ft 437 kts 205°
2026-04-21 12:57 39.55720 10.25848 38961 ft 437 kts 205°
2026-04-21 12:57 39.49988 10.23192 38961 ft 437 kts 205°
2026-04-21 12:58 39.44253 10.20537 38960 ft 437 kts 205°
2026-04-21 12:58 39.38524 10.17888 38958 ft 437 kts 205°
2026-04-21 12:59 39.32907 10.15295 38956 ft 438 kts 205°
2026-04-21 12:59 39.27166 10.12642 38956 ft 438 kts 205°
2026-04-21 13:00 39.21471 10.10014 38960 ft 438 kts 205°
2026-04-21 13:00 39.15734 10.07375 38957 ft 438 kts 205°
2026-04-21 13:01 39.09994 10.04745 38961 ft 438 kts 205°
2026-04-21 13:01 39.04245 10.02117 38971 ft 438 kts 204°
2026-04-21 13:02 38.98504 9.99494 38971 ft 438 kts 204°
2026-04-21 13:02 38.89895 9.95558 38960 ft 438 kts 204°
2026-04-21 13:03 38.84102 9.93107 38958 ft 442 kts 197°
2026-04-21 13:03 38.78049 9.91605 38961 ft 443 kts 195°
2026-04-21 13:04 38.71985 9.90124 38967 ft 443 kts 195°
2026-04-21 13:04 38.65925 9.88631 38969 ft 443 kts 195°
2026-04-21 13:05 38.59861 9.87138 38972 ft 444 kts 195°
2026-04-21 13:05 38.53804 9.85643 38973 ft 444 kts 195°
2026-04-21 13:06 38.47734 9.84156 38974 ft 444 kts 195°
2026-04-21 13:06 38.41675 9.82669 38976 ft 443 kts 195°
2026-04-21 13:07 38.35618 9.81192 38975 ft 443 kts 195°
2026-04-21 13:07 38.29608 9.79733 38982 ft 443 kts 195°
2026-04-21 13:08 38.23404 9.79517 38973 ft 453 kts 175°
2026-04-21 13:08 38.17241 9.81352 38972 ft 455 kts 169°
2026-04-21 13:09 38.11101 9.83335 38973 ft 455 kts 169°
2026-04-21 13:09 38.04963 9.85316 38973 ft 455 kts 170°
2026-04-21 13:10 37.98823 9.87281 38970 ft 455 kts 170°
2026-04-21 13:10 37.92675 9.89245 38969 ft 455 kts 170°
2026-04-21 13:11 37.86537 9.91204 38970 ft 455 kts 170°
2026-04-21 13:11 37.80400 9.93170 38967 ft 456 kts 167°
2026-04-21 13:12 37.74633 9.96600 38967 ft 465 kts 147°
2026-04-21 13:12 37.69889 10.02202 38965 ft 469 kts 135°
2026-04-21 13:13 37.65464 10.08184 38966 ft 469 kts 135°
2026-04-21 13:13 37.60981 10.14200 38966 ft 469 kts 135°
2026-04-21 13:14 37.56507 10.20192 38966 ft 469 kts 135°
2026-04-21 13:14 37.52788 10.25172 38967 ft 470 kts 136°
2026-04-21 13:15 37.48310 10.31161 38968 ft 470 kts 136°
2026-04-21 13:15 37.43918 10.37025 38969 ft 470 kts 136°
2026-04-21 13:16 37.39436 10.43022 38968 ft 470 kts 136°
2026-04-21 13:16 37.34951 10.48993 38972 ft 470 kts 136°
2026-04-21 13:17 37.30460 10.54958 38970 ft 469 kts 136°
2026-04-21 13:17 37.25971 10.60918 38971 ft 469 kts 136°
2026-04-21 13:18 37.21481 10.66862 38978 ft 469 kts 136°
2026-04-21 13:18 37.16989 10.72806 38971 ft 469 kts 136°
2026-04-21 13:19 37.12501 10.78735 38933 ft 469 kts 136°
2026-04-21 13:19 37.10257 10.81700 38471 ft 468 kts 136°
2026-04-21 13:19 37.08014 10.84660 37770 ft 468 kts 136°
2026-04-21 13:20 37.05766 10.87617 37039 ft 469 kts 136°
2026-04-21 13:20 37.03514 10.90569 36300 ft 470 kts 136°
2026-04-21 13:20 37.01255 10.93529 35574 ft 472 kts 136°
2026-04-21 13:20 36.98984 10.96503 34847 ft 473 kts 136°
2026-04-21 13:21 36.96750 10.99432 34332 ft 469 kts 136°
2026-04-21 13:21 36.94468 11.02326 33776 ft 464 kts 142°
2026-04-21 13:21 36.91862 11.04632 33210 ft 453 kts 155°
2026-04-21 13:21 36.89000 11.06145 32657 ft 443 kts 168°
2026-04-21 13:22 36.86014 11.06855 32100 ft 432 kts 180°
2026-04-21 13:22 36.83054 11.06784 31546 ft 421 kts 192°
2026-04-21 13:22 36.80210 11.06049 30999 ft 415 kts 199°
2026-04-21 13:22 36.77409 11.05189 30452 ft 412 kts 199°
2026-04-21 13:23 36.74636 11.04336 29923 ft 410 kts 198°
2026-04-21 13:23 36.71875 11.03488 29316 ft 407 kts 198°
2026-04-21 13:23 36.69140 11.02656 28751 ft 403 kts 198°
2026-04-21 13:23 36.66420 11.01839 28200 ft 400 kts 198°
2026-04-21 13:24 36.63729 11.01036 27657 ft 397 kts 198°
2026-04-21 13:24 36.61052 11.00238 27120 ft 394 kts 198°
2026-04-21 13:24 36.58404 10.99445 26598 ft 390 kts 198°
2026-04-21 13:24 36.55775 10.98654 26038 ft 385 kts 198°
2026-04-21 13:25 36.53219 10.97887 25185 ft 380 kts 198°
2026-04-21 13:25 36.50621 10.97109 24336 ft 376 kts 198°
2026-04-21 13:25 36.48124 10.96363 23556 ft 372 kts 198°
2026-04-21 13:25 36.45619 10.95612 22627 ft 368 kts 198°
2026-04-21 13:26 36.43147 10.94872 21771 ft 364 kts 198°
2026-04-21 13:26 36.40695 10.94139 20955 ft 360 kts 198°
2026-04-21 13:26 36.38277 10.93418 20163 ft 356 kts 198°
2026-04-21 13:26 36.35882 10.92642 19621 ft 352 kts 204°
2026-04-21 13:27 36.33698 10.91371 19306 ft 342 kts 217°
2026-04-21 13:27 36.31847 10.89597 18875 ft 334 kts 229°
2026-04-21 13:27 36.30378 10.87405 18442 ft 327 kts 241°
2026-04-21 13:27 36.29154 10.85040 17986 ft 325 kts 242°
2026-04-21 13:28 36.27933 10.82688 17540 ft 323 kts 241°
2026-04-21 13:28 36.26717 10.80357 17112 ft 321 kts 241°
2026-04-21 13:28 36.25510 10.78046 16683 ft 319 kts 241°
2026-04-21 13:28 36.24308 10.75748 16282 ft 318 kts 240°
2026-04-21 13:29 36.23109 10.73454 15867 ft 316 kts 240°
2026-04-21 13:29 36.21913 10.71171 15461 ft 315 kts 240°
2026-04-21 13:29 36.20733 10.68919 15059 ft 315 kts 240°
2026-04-21 13:29 36.19527 10.66620 14638 ft 314 kts 240°
2026-04-21 13:30 36.18339 10.64357 14233 ft 313 kts 240°
2026-04-21 13:30 36.17166 10.62127 13824 ft 313 kts 240°
2026-04-21 13:30 36.15978 10.59865 13369 ft 313 kts 239°
2026-04-21 13:30 36.14796 10.57614 12943 ft 311 kts 239°
2026-04-21 13:31 36.13618 10.55375 12505 ft 309 kts 239°
2026-04-21 13:31 36.12450 10.53154 12098 ft 307 kts 239°
2026-04-21 13:31 36.11290 10.50948 11674 ft 306 kts 239°
2026-04-21 13:31 36.10133 10.48744 11231 ft 305 kts 239°
2026-04-21 13:32 36.08983 10.46553 10823 ft 303 kts 239°
2026-04-21 13:32 36.07835 10.44368 10347 ft 303 kts 239°
2026-04-21 13:32 36.06871 10.42078 10007 ft 297 kts 248°
2026-04-21 13:32 36.06054 10.39788 9889 ft 285 kts 247°
2026-04-21 13:33 36.05257 10.37593 9701 ft 276 kts 247°
2026-04-21 13:33 36.04471 10.35443 9289 ft 273 kts 247°
2026-04-21 13:33 36.03689 10.33304 8749 ft 272 kts 247°
2026-04-21 13:33 36.02914 10.31175 8197 ft 272 kts 247°
2026-04-21 13:34 36.02139 10.29041 7669 ft 271 kts 247°
2026-04-21 13:34 36.01375 10.26944 7303 ft 262 kts 247°
2026-04-21 13:34 36.00626 10.24889 6844 ft 260 kts 247°
2026-04-21 13:34 35.99900 10.22900 6641 ft 247 kts 247°
2026-04-21 13:35 35.99212 10.21017 6516 ft 233 kts 247°
2026-04-21 13:35 35.98768 10.19165 6364 ft 220 kts 270°
2026-04-21 13:35 35.99116 10.17404 6302 ft 210 kts 299°
2026-04-21 13:35 36.00135 10.16132 6239 ft 212 kts 328°
2026-04-21 13:36 36.01564 10.15684 5995 ft 217 kts
2026-04-21 13:36 36.03032 10.16166 5690 ft 222 kts 18°
2026-04-21 13:36 36.04475 10.16851 5365 ft 221 kts 19°
2026-04-21 13:36 36.05747 10.17885 4956 ft 223 kts 50°
2026-04-21 13:37 36.06547 10.19526 4469 ft 225 kts 60°
2026-04-21 13:37 36.07280 10.21223 4067 ft 224 kts 64°
2026-04-21 13:37 36.07642 10.23089 3656 ft 224 kts 89°
2026-04-21 13:37 36.07639 10.25012 3277 ft 224 kts 90°
2026-04-21 13:38 36.07631 10.26950 2788 ft 226 kts 91°
2026-04-21 13:38 36.07625 10.28902 2291 ft 227 kts 91°
2026-04-21 13:38 36.07619 10.30864 1818 ft 227 kts 91°
2026-04-21 13:38 36.07613 10.32781 1479 ft 219 kts 91°
2026-04-21 13:39 36.07607 10.34630 1197 ft 209 kts 90°
2026-04-21 13:39 36.07601 10.36373 930 ft 196 kts 90°
2026-04-21 13:39 36.07595 10.37976 711 ft 176 kts 90°
2026-04-21 13:39 36.07589 10.39380 502 ft 151 kts 88°
2026-04-21 13:40 36.07584 10.40598 321 ft 132 kts 88°
2026-04-21 13:40 36.07582 10.41689 115 ft 123 kts 88°
2026-04-21 13:40 36.07581 10.42668 33 ft 103 kts 90°
2026-04-21 13:40 36.07578 10.43345 30 ft 54 kts 91°
2026-04-21 13:41 36.07574 10.43600 32 ft 11 kts 89°
2026-04-21 13:41 36.07575 10.43730 32 ft 19 kts 90°
2026-04-21 13:41 36.07574 10.43927 29 ft 26 kts 91°
2026-04-21 13:41 36.07582 10.44167 32 ft 29 kts 75°
2026-04-21 13:42 36.07655 10.44370 31 ft 23 kts 59°
2026-04-21 13:42 36.07733 10.44387 31 ft 17 kts 299°
2026-04-21 13:42 36.07728 10.44278 31 ft 10 kts 279°
2026-04-21 13:42 36.07744 10.44152 30 ft 20 kts 278°
2026-04-21 13:43 36.07745 10.43960 30 ft 23 kts 271°
2026-04-21 13:43 36.07765 10.43807 30 ft 15 kts 323°
2026-04-21 13:43 36.07897 10.43799 30 ft 21 kts
2026-04-21 13:43 36.08036 10.43783 30 ft 18 kts 334°
2026-04-21 13:44 36.08122 10.43685 30 ft 15 kts 316°
2026-04-21 13:44 36.08169 10.43645 30 ft 5 kts 20°
2026-04-21 13:44 36.08191 10.43695 17 ft 8 kts 65°
2026-04-21 13:44 36.08198 10.43717 16 ft 0 kts 67°